Year,Month,Day,Hour,Minute,Value (Times are PST for temperature in C)
2019,05,28,00,00,16.10
2019,05,28,00,01,16.10
2019,05,28,00,02,16.20
2019,05,28,00,03,16.20
2019,05,28,00,04,16.20
2019,05,28,00,05,16.20
2019,05,28,00,06,16.20
2019,05,28,00,07,16.20
2019,05,28,00,08,16.20
2019,05,28,00,09,16.20
2019,05,28,00,10,16.20
2019,05,28,00,11,16.20
2019,05,28,00,12,16.20
2019,05,28,00,13,16.20
2019,05,28,00,14,16.20
2019,05,28,00,15,16.20
2019,05,28,00,16,16.10
2019,05,28,00,17,16.10
2019,05,28,00,18,16.10
2019,05,28,00,19,16.10
2019,05,28,00,20,16.10
2019,05,28,00,21,16.10
2019,05,28,00,22,16.10
2019,05,28,00,23,15.90
2019,05,28,00,24,15.90
2019,05,28,00,25,15.90
2019,05,28,00,26,15.80
2019,05,28,00,27,15.80
2019,05,28,00,28,15.80
2019,05,28,00,29,15.80
2019,05,28,00,30,15.80
2019,05,28,00,31,15.80
2019,05,28,00,32,15.70
2019,05,28,00,33,15.70
2019,05,28,00,34,15.60
2019,05,28,00,35,15.60
2019,05,28,00,36,15.60
2019,05,28,00,37,15.50
2019,05,28,00,38,15.50
2019,05,28,00,39,15.50
2019,05,28,00,40,15.50
2019,05,28,00,41,15.40
2019,05,28,00,42,15.40
2019,05,28,00,43,15.30
2019,05,28,00,44,15.30
2019,05,28,00,45,15.30
2019,05,28,00,46,15.20
2019,05,28,00,47,15.20
2019,05,28,00,48,15.10
2019,05,28,00,49,15.10
2019,05,28,00,50,15.00
2019,05,28,00,51,15.00
2019,05,28,00,52,15.00
2019,05,28,00,53,14.90
2019,05,28,00,54,14.90
2019,05,28,00,55,14.90
2019,05,28,00,56,14.80
2019,05,28,00,57,14.80
2019,05,28,00,58,14.80
2019,05,28,00,59,14.70
2019,05,28,01,00,14.70
2019,05,28,01,01,14.70
2019,05,28,01,02,14.60
2019,05,28,01,03,14.60
2019,05,28,01,04,14.60
2019,05,28,01,05,14.60
2019,05,28,01,06,14.50
2019,05,28,01,07,14.50
2019,05,28,01,08,14.50
2019,05,28,01,09,14.50
2019,05,28,01,10,14.40
2019,05,28,01,11,14.40
2019,05,28,01,12,14.40
2019,05,28,01,13,14.40
2019,05,28,01,14,14.30
2019,05,28,01,15,14.30
2019,05,28,01,16,14.20
2019,05,28,01,17,14.20
2019,05,28,01,18,14.20
2019,05,28,01,19,14.20
2019,05,28,01,20,14.20
2019,05,28,01,21,14.20
2019,05,28,01,22,14.10
2019,05,28,01,23,14.10
2019,05,28,01,24,14.10
2019,05,28,01,25,14.10
2019,05,28,01,26,14.10
2019,05,28,01,27,14.10
2019,05,28,01,28,14.10
2019,05,28,01,29,14.00
2019,05,28,01,30,14.00
2019,05,28,01,31,14.00
2019,05,28,01,32,14.00
2019,05,28,01,33,14.00
2019,05,28,01,34,14.00
2019,05,28,01,35,14.00
2019,05,28,01,36,13.90
2019,05,28,01,37,13.90
2019,05,28,01,38,13.90
2019,05,28,01,39,13.90
2019,05,28,01,40,13.90
2019,05,28,01,41,13.90
2019,05,28,01,42,13.90
2019,05,28,01,43,13.90
2019,05,28,01,44,13.80
2019,05,28,01,45,13.80
2019,05,28,01,46,13.80
2019,05,28,01,47,13.80
2019,05,28,01,48,13.80
2019,05,28,01,49,13.80
2019,05,28,01,50,13.80
2019,05,28,01,51,13.80
2019,05,28,01,52,13.70
2019,05,28,01,53,13.70
2019,05,28,01,54,13.70
2019,05,28,01,55,13.70
2019,05,28,01,56,13.70
2019,05,28,01,57,13.70
2019,05,28,01,58,13.70
2019,05,28,01,59,13.70
2019,05,28,02,00,13.70
2019,05,28,02,01,13.70
2019,05,28,02,02,13.70
2019,05,28,02,03,13.60
2019,05,28,02,04,13.60
2019,05,28,02,05,13.60
2019,05,28,02,06,13.60
2019,05,28,02,07,13.60
2019,05,28,02,08,13.50
2019,05,28,02,09,13.50
2019,05,28,02,10,13.50
2019,05,28,02,11,13.50
2019,05,28,02,12,13.50
2019,05,28,02,13,13.50
2019,05,28,02,14,13.50
2019,05,28,02,15,13.40
2019,05,28,02,16,13.40
2019,05,28,02,17,13.40
2019,05,28,02,18,13.40
2019,05,28,02,19,13.50
2019,05,28,02,20,13.50
2019,05,28,02,21,13.50
2019,05,28,02,22,13.50
2019,05,28,02,23,13.60
2019,05,28,02,24,13.60
2019,05,28,02,25,13.60
2019,05,28,02,26,13.60
2019,05,28,02,27,13.60
2019,05,28,02,28,13.60
2019,05,28,02,29,13.60
2019,05,28,02,30,13.50
2019,05,28,02,31,13.50
2019,05,28,02,32,13.50
2019,05,28,02,33,13.40
2019,05,28,02,34,13.40
2019,05,28,02,35,13.40
2019,05,28,02,36,13.30
2019,05,28,02,37,13.30
2019,05,28,02,38,13.30
2019,05,28,02,39,13.30
2019,05,28,02,40,13.30
2019,05,28,02,41,13.30
2019,05,28,02,42,13.20
2019,05,28,02,43,13.20
2019,05,28,02,44,13.20
2019,05,28,02,45,13.10
2019,05,28,02,46,13.10
2019,05,28,02,47,13.10
2019,05,28,02,48,13.10
2019,05,28,02,49,13.00
2019,05,28,02,50,13.00
2019,05,28,02,51,13.00
2019,05,28,02,52,12.90
2019,05,28,02,53,12.90
2019,05,28,02,54,12.90
2019,05,28,02,55,12.90
2019,05,28,02,56,12.90
2019,05,28,02,57,12.80
2019,05,28,02,58,12.80
2019,05,28,02,59,12.80
2019,05,28,03,00,12.80
2019,05,28,03,01,12.80
2019,05,28,03,02,12.80
2019,05,28,03,03,12.80
2019,05,28,03,04,12.80
2019,05,28,03,05,12.70
2019,05,28,03,06,12.70
2019,05,28,03,07,12.70
2019,05,28,03,08,12.70
2019,05,28,03,09,12.60
2019,05,28,03,10,12.60
2019,05,28,03,11,12.60
2019,05,28,03,12,12.60
2019,05,28,03,13,12.60
2019,05,28,03,14,12.60
2019,05,28,03,15,12.60
2019,05,28,03,16,12.60
2019,05,28,03,17,12.50
2019,05,28,03,18,12.50
2019,05,28,03,19,12.50
2019,05,28,03,20,12.50
2019,05,28,03,21,12.50
2019,05,28,03,22,12.50
2019,05,28,03,23,12.40
2019,05,28,03,24,12.40
2019,05,28,03,25,12.40
2019,05,28,03,26,12.40
2019,05,28,03,27,12.40
2019,05,28,03,28,12.30
2019,05,28,03,29,12.30
2019,05,28,03,30,12.30
2019,05,28,03,31,12.30
2019,05,28,03,32,12.30
2019,05,28,03,33,12.30
2019,05,28,03,34,12.30
2019,05,28,03,35,12.30
2019,05,28,03,36,12.30
2019,05,28,03,37,12.30
2019,05,28,03,38,12.30
2019,05,28,03,39,12.30
2019,05,28,03,40,12.20
2019,05,28,03,41,12.20
2019,05,28,03,42,12.20
2019,05,28,03,43,12.20
2019,05,28,03,44,12.10
2019,05,28,03,45,12.10
2019,05,28,03,46,12.10
2019,05,28,03,47,12.00
2019,05,28,03,48,12.00
2019,05,28,03,49,12.00
2019,05,28,03,50,12.00
2019,05,28,03,51,12.00
2019,05,28,03,52,11.90
2019,05,28,03,53,11.90
2019,05,28,03,54,11.90
2019,05,28,03,55,11.90
2019,05,28,03,56,11.90
2019,05,28,03,57,11.90
2019,05,28,03,58,11.90
2019,05,28,03,59,11.80
2019,05,28,04,00,11.80
2019,05,28,04,01,11.80
2019,05,28,04,02,11.80
2019,05,28,04,03,11.80
2019,05,28,04,04,11.80
2019,05,28,04,05,11.80
2019,05,28,04,06,11.80
2019,05,28,04,07,11.80
2019,05,28,04,08,11.80
2019,05,28,04,09,11.70
2019,05,28,04,10,11.70
2019,05,28,04,11,11.70
2019,05,28,04,12,11.70
2019,05,28,04,13,11.70
2019,05,28,04,14,11.70
2019,05,28,04,15,11.60
2019,05,28,04,16,11.60
2019,05,28,04,17,11.60
2019,05,28,04,18,11.60
2019,05,28,04,19,11.60
2019,05,28,04,20,11.60
2019,05,28,04,21,11.60
2019,05,28,04,22,11.60
2019,05,28,04,23,11.60
2019,05,28,04,24,11.60
2019,05,28,04,25,11.60
2019,05,28,04,26,11.60
2019,05,28,04,27,11.60
2019,05,28,04,28,11.60
2019,05,28,04,29,11.60
2019,05,28,04,30,11.60
2019,05,28,04,31,11.50
2019,05,28,04,32,11.40
2019,05,28,04,33,11.40
2019,05,28,04,34,11.40
2019,05,28,04,35,11.40
2019,05,28,04,36,11.40
2019,05,28,04,37,11.40
2019,05,28,04,38,11.40
2019,05,28,04,39,11.40
2019,05,28,04,40,11.40
2019,05,28,04,41,11.40
2019,05,28,04,42,11.40
2019,05,28,04,43,11.40
2019,05,28,04,44,11.40
2019,05,28,04,45,11.40
2019,05,28,04,46,11.40
2019,05,28,04,47,11.40
2019,05,28,04,48,11.40
2019,05,28,04,49,11.40
2019,05,28,04,50,11.40
2019,05,28,04,51,11.40
2019,05,28,04,52,11.40
2019,05,28,04,53,11.40
2019,05,28,04,54,11.40
2019,05,28,04,55,11.40
2019,05,28,04,56,11.40
2019,05,28,04,57,11.40
2019,05,28,04,58,11.40
2019,05,28,04,59,11.40
2019,05,28,05,00,11.40
2019,05,28,05,01,11.40
2019,05,28,05,02,11.40
2019,05,28,05,03,11.40
2019,05,28,05,04,11.40
2019,05,28,05,05,11.40
2019,05,28,05,06,11.40
2019,05,28,05,07,11.40
2019,05,28,05,08,11.40
2019,05,28,05,09,11.40
2019,05,28,05,10,11.40
2019,05,28,05,11,11.40
2019,05,28,05,12,11.30
2019,05,28,05,13,11.30
2019,05,28,05,14,11.30
2019,05,28,05,15,11.30
2019,05,28,05,16,11.30
2019,05,28,05,17,11.30
2019,05,28,05,18,11.30
2019,05,28,05,19,11.30
2019,05,28,05,20,11.30
2019,05,28,05,21,11.30
2019,05,28,05,22,11.30
2019,05,28,05,23,11.30
2019,05,28,05,24,11.30
2019,05,28,05,25,11.30
2019,05,28,05,26,11.30
2019,05,28,05,27,11.30
2019,05,28,05,28,11.30
2019,05,28,05,29,11.30
2019,05,28,05,30,11.30
2019,05,28,05,31,11.30
2019,05,28,05,32,11.30
2019,05,28,05,33,11.30
2019,05,28,05,34,11.30
2019,05,28,05,35,11.30
2019,05,28,05,36,11.30
2019,05,28,05,37,11.20
2019,05,28,05,38,11.20
2019,05,28,05,39,11.20
2019,05,28,05,40,11.20
2019,05,28,05,41,11.20
2019,05,28,05,42,11.20
2019,05,28,05,43,11.20
2019,05,28,05,44,11.20
2019,05,28,05,45,11.20
2019,05,28,05,46,11.20
2019,05,28,05,47,11.20
2019,05,28,05,48,11.20
2019,05,28,05,49,11.20
2019,05,28,05,50,11.20
2019,05,28,05,51,11.20
2019,05,28,05,52,11.20
2019,05,28,05,53,11.20
2019,05,28,05,54,11.20
2019,05,28,05,55,11.20
2019,05,28,05,56,11.30
2019,05,28,05,57,11.30
2019,05,28,05,58,11.30
2019,05,28,05,59,11.30
2019,05,28,06,00,11.40
2019,05,28,06,01,11.40
2019,05,28,06,02,11.40
2019,05,28,06,03,11.40
2019,05,28,06,04,11.40
2019,05,28,06,05,11.40
2019,05,28,06,06,11.40
2019,05,28,06,07,11.40
2019,05,28,06,08,11.40
2019,05,28,06,09,11.40
2019,05,28,06,10,11.40
2019,05,28,06,11,11.40
2019,05,28,06,12,11.40
2019,05,28,06,13,11.40
2019,05,28,06,14,11.40
2019,05,28,06,15,11.40
2019,05,28,06,16,11.40
2019,05,28,06,17,11.40
2019,05,28,06,18,11.40
2019,05,28,06,19,11.40
2019,05,28,06,20,11.40
2019,05,28,06,21,11.40
2019,05,28,06,22,11.40
2019,05,28,06,23,11.40
2019,05,28,06,24,11.40
2019,05,28,06,25,11.40
2019,05,28,06,26,11.50
2019,05,28,06,27,11.60
2019,05,28,06,28,11.60
2019,05,28,06,29,11.60
2019,05,28,06,30,11.60
2019,05,28,06,31,11.60
2019,05,28,06,32,11.70
2019,05,28,06,33,11.70
2019,05,28,06,34,11.70
2019,05,28,06,35,11.70
2019,05,28,06,36,11.70
2019,05,28,06,37,11.70
2019,05,28,06,38,11.70
2019,05,28,06,39,11.80
2019,05,28,06,40,11.80
2019,05,28,06,41,11.80
2019,05,28,06,42,11.80
2019,05,28,06,43,11.80
2019,05,28,06,44,11.80
2019,05,28,06,45,11.80
2019,05,28,06,46,11.90
2019,05,28,06,47,11.90
2019,05,28,06,48,11.90
2019,05,28,06,49,11.90
2019,05,28,06,50,11.90
2019,05,28,06,51,11.90
2019,05,28,06,52,12.00
2019,05,28,06,53,12.00
2019,05,28,06,54,12.00
2019,05,28,06,55,12.10
2019,05,28,06,56,12.10
2019,05,28,06,57,12.20
2019,05,28,06,58,12.30
2019,05,28,06,59,12.30
2019,05,28,07,00,12.30
2019,05,28,07,01,12.40
2019,05,28,07,02,12.40
2019,05,28,07,03,12.40
2019,05,28,07,04,12.40
2019,05,28,07,05,12.50
2019,05,28,07,06,12.50
2019,05,28,07,07,12.60
2019,05,28,07,08,12.60
2019,05,28,07,09,12.60
2019,05,28,07,10,12.70
2019,05,28,07,11,12.70
2019,05,28,07,12,12.80
2019,05,28,07,13,12.80
2019,05,28,07,14,12.90
2019,05,28,07,15,13.00
2019,05,28,07,16,13.00
2019,05,28,07,17,13.10
2019,05,28,07,18,13.10
2019,05,28,07,19,13.10
2019,05,28,07,20,13.20
2019,05,28,07,21,13.30
2019,05,28,07,22,13.30
2019,05,28,07,23,13.30
2019,05,28,07,24,13.40
2019,05,28,07,25,13.40
2019,05,28,07,26,13.40
2019,05,28,07,27,13.50
2019,05,28,07,28,13.50
2019,05,28,07,29,13.60
2019,05,28,07,30,13.60
2019,05,28,07,31,13.70
2019,05,28,07,32,13.70
2019,05,28,07,33,13.70
2019,05,28,07,34,13.70
2019,05,28,07,35,13.70
2019,05,28,07,36,13.80
2019,05,28,07,37,13.80
2019,05,28,07,38,13.80
2019,05,28,07,39,13.90
2019,05,28,07,40,13.90
2019,05,28,07,41,13.90
2019,05,28,07,42,14.00
2019,05,28,07,43,14.00
2019,05,28,07,44,14.00
2019,05,28,07,45,14.10
2019,05,28,07,46,14.00
2019,05,28,07,47,14.10
2019,05,28,07,48,14.10
2019,05,28,07,49,14.10
2019,05,28,07,50,14.10
2019,05,28,07,51,14.10
2019,05,28,07,52,14.10
2019,05,28,07,53,14.10
2019,05,28,07,54,14.10
2019,05,28,07,55,14.20
2019,05,28,07,56,14.20
2019,05,28,07,57,14.20
2019,05,28,07,58,14.20
2019,05,28,07,59,14.20
2019,05,28,08,00,14.10
2019,05,28,08,01,14.10
2019,05,28,08,02,14.10
2019,05,28,08,03,14.10
2019,05,28,08,04,14.10
2019,05,28,08,05,14.10
2019,05,28,08,06,14.10
2019,05,28,08,07,14.10
2019,05,28,08,08,14.10
2019,05,28,08,09,14.10
2019,05,28,08,10,14.10
2019,05,28,08,11,14.20
2019,05,28,08,12,14.20
2019,05,28,08,13,14.30
2019,05,28,08,14,14.30
2019,05,28,08,15,14.30
2019,05,28,08,16,14.40
2019,05,28,08,17,14.50
2019,05,28,08,18,14.50
2019,05,28,08,19,14.50
2019,05,28,08,20,14.50
2019,05,28,08,21,14.50
2019,05,28,08,22,14.50
2019,05,28,08,23,14.60
2019,05,28,08,24,14.60
2019,05,28,08,25,14.60
2019,05,28,08,26,14.50
2019,05,28,08,27,14.50
2019,05,28,08,28,14.40
2019,05,28,08,29,14.40
2019,05,28,08,30,14.30
2019,05,28,08,31,14.30
2019,05,28,08,32,14.30
2019,05,28,08,33,14.30
2019,05,28,08,34,14.40
2019,05,28,08,35,14.40
2019,05,28,08,36,14.40
2019,05,28,08,37,14.30
2019,05,28,08,38,14.30
2019,05,28,08,39,14.30
2019,05,28,08,40,14.20
2019,05,28,08,41,14.20
2019,05,28,08,42,14.30
2019,05,28,08,43,14.40
2019,05,28,08,44,14.40
2019,05,28,08,45,14.30
2019,05,28,08,46,14.30
2019,05,28,08,47,14.30
2019,05,28,08,48,14.30
2019,05,28,08,49,14.20
2019,05,28,08,50,14.30
2019,05,28,08,51,14.30
2019,05,28,08,52,14.30
2019,05,28,08,53,14.30
2019,05,28,08,54,14.30
2019,05,28,08,55,14.30
2019,05,28,08,56,14.40
2019,05,28,08,57,14.50
2019,05,28,08,58,14.60
2019,05,28,08,59,14.80
2019,05,28,09,00,14.80
2019,05,28,09,01,14.80
2019,05,28,09,02,14.80
2019,05,28,09,03,14.80
2019,05,28,09,04,14.70
2019,05,28,09,05,14.60
2019,05,28,09,06,14.70
2019,05,28,09,07,14.60
2019,05,28,09,08,14.60
2019,05,28,09,09,14.60
2019,05,28,09,10,14.70
2019,05,28,09,11,14.80
2019,05,28,09,12,14.80
2019,05,28,09,13,14.80
2019,05,28,09,14,14.80
2019,05,28,09,15,14.80
2019,05,28,09,16,14.80
2019,05,28,09,17,14.80
2019,05,28,09,18,14.80
2019,05,28,09,19,14.70
2019,05,28,09,20,14.70
2019,05,28,09,21,14.70
2019,05,28,09,22,14.70
2019,05,28,09,23,14.70
2019,05,28,09,24,14.70
2019,05,28,09,25,14.70
2019,05,28,09,26,14.70
2019,05,28,09,27,14.70
2019,05,28,09,28,14.70
2019,05,28,09,29,14.70
2019,05,28,09,30,14.70
2019,05,28,09,31,14.70
2019,05,28,09,32,14.80
2019,05,28,09,33,14.80
2019,05,28,09,34,14.80
2019,05,28,09,35,14.90
2019,05,28,09,36,14.90
2019,05,28,09,37,15.00
2019,05,28,09,38,15.00
2019,05,28,09,39,14.90
2019,05,28,09,40,14.90
2019,05,28,09,41,14.90
2019,05,28,09,42,15.00
2019,05,28,09,43,15.00
2019,05,28,09,44,15.00
2019,05,28,09,45,15.10
2019,05,28,09,46,15.10
2019,05,28,09,47,15.20
2019,05,28,09,48,15.20
2019,05,28,09,49,15.20
2019,05,28,09,50,15.30
2019,05,28,09,51,15.30
2019,05,28,09,52,15.30
2019,05,28,09,53,15.30
2019,05,28,09,54,15.30
2019,05,28,09,55,15.30
2019,05,28,09,56,15.30
2019,05,28,09,57,15.30
2019,05,28,09,58,15.10
2019,05,28,09,59,15.00
2019,05,28,10,00,15.10
2019,05,28,10,01,15.10
2019,05,28,10,02,15.10
2019,05,28,10,03,15.10
2019,05,28,10,04,15.00
2019,05,28,10,05,15.00
2019,05,28,10,06,15.10
2019,05,28,10,07,15.20
2019,05,28,10,08,15.20
2019,05,28,10,09,15.20
2019,05,28,10,10,15.20
2019,05,28,10,11,15.20
2019,05,28,10,12,15.20
2019,05,28,10,13,15.20
2019,05,28,10,14,15.20
2019,05,28,10,15,15.30
2019,05,28,10,16,15.30
2019,05,28,10,17,15.30
2019,05,28,10,18,15.20
2019,05,28,10,19,15.10
2019,05,28,10,20,15.10
2019,05,28,10,21,15.20
2019,05,28,10,22,15.30
2019,05,28,10,23,15.30
2019,05,28,10,24,15.30
2019,05,28,10,25,15.40
2019,05,28,10,26,15.30
2019,05,28,10,27,15.40
2019,05,28,10,28,15.40
2019,05,28,10,29,15.40
2019,05,28,10,30,15.40
2019,05,28,10,31,15.40
2019,05,28,10,32,15.40
2019,05,28,10,33,15.40
2019,05,28,10,34,15.40
2019,05,28,10,35,15.40
2019,05,28,10,36,15.40
2019,05,28,10,37,15.50
2019,05,28,10,38,15.60
2019,05,28,10,39,15.80
2019,05,28,10,40,15.80
2019,05,28,10,41,15.80
2019,05,28,10,42,15.70
2019,05,28,10,43,15.60
2019,05,28,10,44,15.60
2019,05,28,10,45,15.60
2019,05,28,10,46,15.50
2019,05,28,10,47,15.50
2019,05,28,10,48,15.50
2019,05,28,10,49,15.50
2019,05,28,10,50,15.50
2019,05,28,10,51,15.60
2019,05,28,10,52,15.70
2019,05,28,10,53,15.70
2019,05,28,10,54,15.60
2019,05,28,10,55,15.50
2019,05,28,10,56,15.40
2019,05,28,10,57,15.30
2019,05,28,10,58,15.40
2019,05,28,10,59,15.40
2019,05,28,11,00,15.50
2019,05,28,11,01,15.50
2019,05,28,11,02,15.50
2019,05,28,11,03,15.50
2019,05,28,11,04,15.50
2019,05,28,11,05,15.60
2019,05,28,11,06,15.60
2019,05,28,11,07,15.60
2019,05,28,11,08,15.70
2019,05,28,11,09,15.70
2019,05,28,11,10,15.70
2019,05,28,11,11,15.70
2019,05,28,11,12,15.70
2019,05,28,11,13,15.80
2019,05,28,11,14,15.80
2019,05,28,11,15,15.80
2019,05,28,11,16,15.80
2019,05,28,11,17,15.80
2019,05,28,11,18,15.80
2019,05,28,11,19,15.80
2019,05,28,11,20,15.80
2019,05,28,11,21,15.80
2019,05,28,11,22,15.90
2019,05,28,11,23,15.90
2019,05,28,11,24,15.90
2019,05,28,11,25,15.90
2019,05,28,11,26,15.90
2019,05,28,11,27,15.90
2019,05,28,11,28,15.90
2019,05,28,11,29,15.90
2019,05,28,11,30,15.80
2019,05,28,11,31,15.70
2019,05,28,11,32,15.60
2019,05,28,11,33,15.70
2019,05,28,11,34,15.70
2019,05,28,11,35,15.70
2019,05,28,11,36,15.80
2019,05,28,11,37,15.70
2019,05,28,11,38,15.60
2019,05,28,11,39,15.50
2019,05,28,11,40,15.40
2019,05,28,11,41,15.30
2019,05,28,11,42,15.30
2019,05,28,11,43,15.20
2019,05,28,11,44,15.20
2019,05,28,11,45,15.10
2019,05,28,11,46,15.10
2019,05,28,11,47,15.10
2019,05,28,11,48,15.20
2019,05,28,11,49,15.20
2019,05,28,11,50,15.20
2019,05,28,11,51,15.30
2019,05,28,11,52,15.30
2019,05,28,11,53,15.30
2019,05,28,11,54,15.40
2019,05,28,11,55,15.50
2019,05,28,11,56,15.60
2019,05,28,11,57,15.70
2019,05,28,11,58,15.60
2019,05,28,11,59,15.50
2019,05,28,12,00,15.50
2019,05,28,12,01,15.50
2019,05,28,12,02,15.60
2019,05,28,12,03,15.70
2019,05,28,12,04,15.80
2019,05,28,12,05,15.90
2019,05,28,12,06,15.90
2019,05,28,12,07,15.80
2019,05,28,12,08,16.00
2019,05,28,12,09,16.10
2019,05,28,12,10,16.00
2019,05,28,12,11,15.90
2019,05,28,12,12,15.90
2019,05,28,12,13,15.90
2019,05,28,12,14,16.00
2019,05,28,12,15,15.90
2019,05,28,12,16,15.90
2019,05,28,12,17,15.80
2019,05,28,12,18,15.80
2019,05,28,12,19,15.80
2019,05,28,12,20,15.80
2019,05,28,12,21,15.80
2019,05,28,12,22,15.80
2019,05,28,12,23,15.80
2019,05,28,12,24,15.80
2019,05,28,12,25,15.80
2019,05,28,12,26,15.80
2019,05,28,12,27,15.90
2019,05,28,12,28,16.10
2019,05,28,12,29,16.10
2019,05,28,12,30,16.10
2019,05,28,12,31,16.10
2019,05,28,12,32,16.10
2019,05,28,12,33,16.10
2019,05,28,12,34,16.20
2019,05,28,12,35,16.20
2019,05,28,12,36,16.10
2019,05,28,12,37,16.10
2019,05,28,12,38,16.10
2019,05,28,12,39,16.10
2019,05,28,12,40,16.10
2019,05,28,12,41,16.10
2019,05,28,12,42,16.10
2019,05,28,12,43,16.10
2019,05,28,12,44,16.00
2019,05,28,12,45,15.90
2019,05,28,12,46,16.00
2019,05,28,12,47,16.10
2019,05,28,12,48,16.10
2019,05,28,12,49,16.10
2019,05,28,12,50,16.10
2019,05,28,12,51,16.20
2019,05,28,12,52,16.20
2019,05,28,12,53,16.10
2019,05,28,12,54,16.10
2019,05,28,12,55,16.00
2019,05,28,12,56,15.90
2019,05,28,12,57,15.90
2019,05,28,12,58,15.90
2019,05,28,12,59,16.00
2019,05,28,13,00,16.10
2019,05,28,13,01,16.10
2019,05,28,13,02,16.10
2019,05,28,13,03,16.10
2019,05,28,13,04,16.10
2019,05,28,13,05,16.20
2019,05,28,13,06,16.20
2019,05,28,13,07,16.20
2019,05,28,13,08,16.30
2019,05,28,13,09,16.40
2019,05,28,13,10,16.50
2019,05,28,13,11,16.40
2019,05,28,13,12,16.40
2019,05,28,13,13,16.40
2019,05,28,13,14,16.40
2019,05,28,13,15,16.30
2019,05,28,13,16,16.20
2019,05,28,13,17,16.20
2019,05,28,13,18,16.20
2019,05,28,13,19,16.20
2019,05,28,13,20,16.30
2019,05,28,13,21,16.40
2019,05,28,13,22,16.30
2019,05,28,13,23,16.30
2019,05,28,13,24,16.20
2019,05,28,13,25,16.10
2019,05,28,13,26,15.90
2019,05,28,13,27,15.70
2019,05,28,13,28,15.50
2019,05,28,13,29,15.40
2019,05,28,13,30,15.30
2019,05,28,13,31,15.10
2019,05,28,13,32,15.00
2019,05,28,13,33,15.00
2019,05,28,13,34,14.90
2019,05,28,13,35,14.90
2019,05,28,13,36,14.80
2019,05,28,13,37,14.80
2019,05,28,13,38,14.80
2019,05,28,13,39,14.80
2019,05,28,13,40,14.80
2019,05,28,13,41,14.80
2019,05,28,13,42,14.80
2019,05,28,13,43,14.90
2019,05,28,13,44,14.90
2019,05,28,13,45,15.00
2019,05,28,13,46,15.00
2019,05,28,13,47,14.90
2019,05,28,13,48,14.90
2019,05,28,13,49,14.80
2019,05,28,13,50,14.80
2019,05,28,13,51,14.80
2019,05,28,13,52,14.80
2019,05,28,13,53,14.80
2019,05,28,13,54,14.80
2019,05,28,13,55,14.70
2019,05,28,13,56,14.70
2019,05,28,13,57,14.70
2019,05,28,13,58,14.70
2019,05,28,13,59,14.80
2019,05,28,14,00,14.70
2019,05,28,14,01,14.70
2019,05,28,14,02,14.70
2019,05,28,14,03,14.70
2019,05,28,14,04,14.60
2019,05,28,14,05,14.60
2019,05,28,14,06,14.60
2019,05,28,14,07,14.60
2019,05,28,14,08,14.60
2019,05,28,14,09,14.60
2019,05,28,14,10,14.60
2019,05,28,14,11,14.50
2019,05,28,14,12,14.60
2019,05,28,14,13,14.60
2019,05,28,14,14,14.60
2019,05,28,14,15,14.70
2019,05,28,14,16,14.70
2019,05,28,14,17,14.70
2019,05,28,14,18,14.60
2019,05,28,14,19,14.50
2019,05,28,14,20,14.40
2019,05,28,14,21,14.30
2019,05,28,14,22,14.30
2019,05,28,14,23,14.20
2019,05,28,14,24,14.20
2019,05,28,14,25,14.20
2019,05,28,14,26,14.40
2019,05,28,14,27,14.50
2019,05,28,14,28,14.60
2019,05,28,14,29,14.60
2019,05,28,14,30,14.70
2019,05,28,14,31,14.80
2019,05,28,14,32,14.80
2019,05,28,14,33,14.80
2019,05,28,14,34,14.60
2019,05,28,14,35,14.50
2019,05,28,14,36,14.40
2019,05,28,14,37,14.50
2019,05,28,14,38,14.50
2019,05,28,14,39,14.40
2019,05,28,14,40,14.40
2019,05,28,14,41,14.30
2019,05,28,14,42,14.20
2019,05,28,14,43,14.20
2019,05,28,14,44,14.20
2019,05,28,14,45,14.10
2019,05,28,14,46,14.20
2019,05,28,14,47,14.20
2019,05,28,14,48,14.40
2019,05,28,14,49,14.50
2019,05,28,14,50,14.50
2019,05,28,14,51,14.50
2019,05,28,14,52,14.60
2019,05,28,14,53,14.70
2019,05,28,14,54,14.70
2019,05,28,14,55,14.70
2019,05,28,14,56,14.80
2019,05,28,14,57,14.80
2019,05,28,14,58,14.90
2019,05,28,14,59,14.90
2019,05,28,15,00,14.90
2019,05,28,15,01,14.80
2019,05,28,15,02,14.80
2019,05,28,15,03,14.70
2019,05,28,15,04,14.70
2019,05,28,15,05,14.70
2019,05,28,15,06,14.80
2019,05,28,15,07,14.80
2019,05,28,15,08,14.90
2019,05,28,15,09,15.00
2019,05,28,15,10,15.00
2019,05,28,15,11,15.00
2019,05,28,15,12,14.90
2019,05,28,15,13,14.80
2019,05,28,15,14,14.70
2019,05,28,15,15,14.60
2019,05,28,15,16,14.60
2019,05,28,15,17,14.60
2019,05,28,15,18,14.60
2019,05,28,15,19,14.60
2019,05,28,15,20,14.70
2019,05,28,15,21,14.70
2019,05,28,15,22,14.60
2019,05,28,15,23,14.60
2019,05,28,15,24,14.60
2019,05,28,15,25,14.60
2019,05,28,15,26,14.60
2019,05,28,15,27,14.70
2019,05,28,15,28,14.80
2019,05,28,15,29,14.80
2019,05,28,15,30,14.90
2019,05,28,15,31,15.00
2019,05,28,15,32,15.00
2019,05,28,15,33,15.00
2019,05,28,15,34,15.00
2019,05,28,15,35,15.00
2019,05,28,15,36,15.10
2019,05,28,15,37,15.20
2019,05,28,15,38,15.20
2019,05,28,15,39,15.30
2019,05,28,15,40,15.30
2019,05,28,15,41,15.30
2019,05,28,15,42,15.30
2019,05,28,15,43,15.40
2019,05,28,15,44,15.40
2019,05,28,15,45,15.40
2019,05,28,15,46,15.50
2019,05,28,15,47,15.60
2019,05,28,15,48,15.60
2019,05,28,15,49,15.60
2019,05,28,15,50,15.60
2019,05,28,15,51,15.70
2019,05,28,15,52,15.80
2019,05,28,15,53,15.80
2019,05,28,15,54,15.80
2019,05,28,15,55,15.80
2019,05,28,15,56,15.80
2019,05,28,15,57,15.80
2019,05,28,15,58,15.70
2019,05,28,15,59,15.50
2019,05,28,16,00,15.30
2019,05,28,16,01,15.20
2019,05,28,16,02,15.10
2019,05,28,16,03,15.10
2019,05,28,16,04,15.10
2019,05,28,16,05,15.10
2019,05,28,16,06,15.10
2019,05,28,16,07,15.00
2019,05,28,16,08,15.00
2019,05,28,16,09,15.00
2019,05,28,16,10,15.10
2019,05,28,16,11,15.20
2019,05,28,16,12,15.20
2019,05,28,16,13,15.20
2019,05,28,16,14,15.20
2019,05,28,16,15,15.20
2019,05,28,16,16,15.10
2019,05,28,16,17,15.00
2019,05,28,16,18,14.90
2019,05,28,16,19,14.90
2019,05,28,16,20,14.90
2019,05,28,16,21,14.90
2019,05,28,16,22,14.80
2019,05,28,16,23,14.80
2019,05,28,16,24,14.80
2019,05,28,16,25,14.80
2019,05,28,16,26,14.70
2019,05,28,16,27,14.80
2019,05,28,16,28,14.80
2019,05,28,16,29,14.80
2019,05,28,16,30,14.80
2019,05,28,16,31,14.90
2019,05,28,16,32,15.00
2019,05,28,16,33,15.00
2019,05,28,16,34,15.10
2019,05,28,16,35,15.20
2019,05,28,16,36,15.30
2019,05,28,16,37,15.30
2019,05,28,16,38,15.40
2019,05,28,16,39,15.50
2019,05,28,16,40,15.60
2019,05,28,16,41,15.70
2019,05,28,16,42,15.80
2019,05,28,16,43,15.80
2019,05,28,16,44,15.90
2019,05,28,16,45,16.10
2019,05,28,16,46,16.30
2019,05,28,16,47,16.50
2019,05,28,16,48,16.60
2019,05,28,16,49,16.80
2019,05,28,16,50,17.00
2019,05,28,16,51,17.20
2019,05,28,16,52,17.30
2019,05,28,16,53,17.50
2019,05,28,16,54,17.50
2019,05,28,16,55,17.50
2019,05,28,16,56,17.50
2019,05,28,16,57,17.60
2019,05,28,16,58,17.60
2019,05,28,16,59,17.60
2019,05,28,17,00,17.60
2019,05,28,17,01,17.70
2019,05,28,17,02,17.70
2019,05,28,17,03,17.70
2019,05,28,17,04,17.70
2019,05,28,17,05,17.70
2019,05,28,17,06,17.70
2019,05,28,17,07,17.70
2019,05,28,17,08,17.70
2019,05,28,17,09,17.70
2019,05,28,17,10,17.70
2019,05,28,17,11,17.60
2019,05,28,17,12,17.60
2019,05,28,17,13,17.50
2019,05,28,17,14,17.40
2019,05,28,17,15,17.40
2019,05,28,17,16,17.40
2019,05,28,17,17,17.40
2019,05,28,17,18,17.40
2019,05,28,17,19,17.50